Total_Precipitation_Accumulation
0.07 0.16 0.37 0.68 0.86 1.02 0.92 0.81 0.75 0.67 0.61 0.63 0.67 0.78 0.90 0.92 0.80 0.72 0.69 0.71 0.78 0.88 0.95 0.92 0.88 0.78 0.74 0.70 0.60 0.50 0.40 0.32 0.25 0.23 0.18 0.12 0.08 0.06 0.05 0.05 0.05 0.05 0.04
0.09 0.18 0.34 0.48 0.55 0.69 0.83 0.82 0.74 0.75 0.84 1.02 1.18 1.40 1.52 1.43 1.30 1.23 1.19 1.21 1.21 1.17 1.09 1.04 0.93 0.82 0.71 0.60 0.51 0.45 0.39 0.35 0.28 0.22 0.18 0.13 0.09 0.05 0.03 0.02 0.02 0.02 0.02
0.09 0.15 0.24 0.39 0.50 0.65 0.84 0.89 0.91 1.04 1.24 1.44 1.74 1.98 1.92 1.79 1.79 1.73 1.69 1.58 1.44 1.31 1.20 1.08 0.97 0.85 0.72 0.63 0.54 0.45 0.38 0.31 0.24 0.18 0.15 0.13 0.09 0.05 0.03 0.02 0.02 0.01 0.01
0.06 0.12 0.22 0.40 0.61 0.80 0.94 1.04 1.16 1.39 1.67 1.87 2.05 2.13 2.10 2.06 2.07 1.87 1.71 1.52 1.32 1.22 1.12 0.98 0.86 0.76 0.64 0.53 0.40 0.30 0.24 0.19 0.15 0.11 0.10 0.09 0.07 0.07 0.05 0.02 0.01 0.00 0.00
0.05 0.09 0.17 0.33 0.54 0.77 1.02 1.19 1.32 1.59 1.82 1.98 2.10 2.19 2.26 2.20 2.03 1.69 1.40 1.17 1.05 0.97 0.82 0.66 0.54 0.47 0.38 0.28 0.19 0.15 0.12 0.09 0.08 0.07 0.07 0.07 0.06 0.05 0.06 0.04 0.01 0.01 0.00
0.06 0.10 0.17 0.26 0.41 0.60 0.85 1.02 1.17 1.54 1.87 2.03 2.05 2.07 2.06 1.88 1.60 1.31 1.07 0.92 0.81 0.72 0.59 0.47 0.36 0.27 0.20 0.13 0.09 0.08 0.07 0.07 0.07 0.06 0.04 0.05 0.05 0.05 0.06 0.06 0.03 0.02 0.01
0.08 0.11 0.19 0.27 0.39 0.51 0.70 0.91 1.09 1.30 1.56 1.69 1.68 1.64 1.50 1.31 1.17 1.05 0.89 0.71 0.58 0.47 0.35 0.23 0.16 0.11 0.08 0.06 0.06 0.05 0.05 0.04 0.05 0.05 0.04 0.04 0.05 0.05 0.08 0.10 0.08 0.06 0.02
0.11 0.15 0.24 0.32 0.38 0.48 0.65 0.84 0.99 1.12 1.22 1.22 1.16 1.03 0.94 0.85 0.77 0.66 0.49 0.37 0.28 0.21 0.14 0.08 0.05 0.03 0.03 0.03 0.03 0.03 0.04 0.04 0.06 0.06 0.08 0.09 0.08 0.09 0.12 0.15 0.18 0.15 0.08
0.17 0.24 0.32 0.36 0.40 0.45 0.54 0.63 0.70 0.76 0.73 0.67 0.63 0.57 0.53 0.45 0.37 0.28 0.20 0.14 0.11 0.08 0.05 0.04 0.04 0.04 0.04 0.05 0.06 0.06 0.07 0.08 0.10 0.10 0.10 0.10 0.09 0.09 0.10 0.12 0.17 0.24 0.20
0.24 0.31 0.36 0.37 0.36 0.38 0.42 0.42 0.40 0.39 0.37 0.35 0.34 0.31 0.28 0.23 0.19 0.15 0.12 0.10 0.08 0.06 0.05 0.05 0.06 0.06 0.06 0.07 0.09 0.10 0.10 0.12 0.12 0.11 0.11 0.11 0.10 0.12 0.13 0.14 0.16 0.23 0.29
0.32 0.39 0.40 0.34 0.29 0.26 0.26 0.27 0.25 0.24 0.23 0.22 0.22 0.20 0.17 0.13 0.10 0.08 0.08 0.07 0.07 0.06 0.07 0.07 0.07 0.07 0.08 0.08 0.10 0.10 0.10 0.10 0.09 0.09 0.10 0.10 0.11 0.12 0.12 0.15 0.20 0.24 0.31
0.40 0.42 0.39 0.30 0.25 0.24 0.23 0.22 0.22 0.22 0.21 0.18 0.15 0.13 0.11 0.09 0.08 0.07 0.07 0.07 0.07 0.07 0.08 0.08 0.09 0.08 0.08 0.08 0.10 0.10 0.09 0.09 0.10 0.09 0.10 0.09 0.10 0.11 0.12 0.16 0.18 0.21 0.27
0.53 0.49 0.42 0.32 0.24 0.22 0.20 0.20 0.19 0.17 0.13 0.10 0.09 0.08 0.08 0.07 0.07 0.07 0.08 0.09 0.09 0.09 0.09 0.09 0.09 0.08 0.08 0.09 0.10 0.09 0.08 0.08 0.09 0.09 0.11 0.11 0.12 0.14 0.16 0.20 0.22 0.24 0.27
0.54 0.43 0.36 0.28 0.23 0.21 0.19 0.17 0.15 0.13 0.09 0.07 0.06 0.06 0.07 0.08 0.08 0.09 0.09 0.09 0.10 0.11 0.10 0.08 0.08 0.08 0.09 0.07 0.06 0.05 0.05 0.06 0.06 0.08 0.11 0.12 0.16 0.19 0.22 0.23 0.25 0.32 0.37
0.54 0.47 0.38 0.31 0.26 0.23 0.20 0.18 0.17 0.13 0.09 0.08 0.07 0.09 0.09 0.10 0.11 0.11 0.12 0.12 0.11 0.09 0.08 0.07 0.07 0.08 0.07 0.03 0.02 0.02 0.02 0.04 0.06 0.08 0.11 0.12 0.15 0.21 0.24 0.26 0.32 0.42 0.49
0.56 0.51 0.42 0.35 0.31 0.30 0.29 0.25 0.21 0.17 0.14 0.13 0.14 0.13 0.12 0.12 0.13 0.13 0.12 0.11 0.10 0.08 0.06 0.05 0.05 0.05 0.03 0.01 0.01 0.00 0.01 0.04 0.08 0.12 0.12 0.09 0.09 0.12 0.17 0.24 0.32 0.41 0.49
0.62 0.56 0.48 0.43 0.41 0.39 0.36 0.33 0.29 0.25 0.22 0.20 0.18 0.16 0.13 0.12 0.12 0.10 0.10 0.09 0.07 0.06 0.04 0.04 0.03 0.04 0.03 0.00 0.00 0.00 0.01 0.06 0.12 0.15 0.13 0.08 0.07 0.12 0.17 0.20 0.22 0.29 0.41
0.66 0.59 0.54 0.52 0.52 0.49 0.44 0.39 0.33 0.26 0.21 0.18 0.16 0.13 0.10 0.09 0.09 0.08 0.06 0.05 0.04 0.04 0.04 0.04 0.04 0.05 0.03 0.00 0.00 0.00 0.02 0.06 0.09 0.11 0.11 0.12 0.15 0.16 0.15 0.16 0.22 0.35 0.45
0.54 0.52 0.50 0.53 0.54 0.49 0.40 0.31 0.23 0.18 0.15 0.13 0.11 0.09 0.07 0.06 0.04 0.04 0.04 0.04 0.04 0.04 0.04 0.03 0.04 0.05 0.05 0.01 0.00 0.00 0.02 0.04 0.05 0.06 0.09 0.12 0.17 0.15 0.20 0.28 0.40 0.57 0.72
0.38 0.43 0.47 0.47 0.42 0.35 0.25 0.19 0.15 0.13 0.11 0.09 0.07 0.05 0.03 0.03 0.03 0.03 0.04 0.05 0.04 0.04 0.03 0.03 0.04 0.05 0.07 0.02 0.00 0.00 0.02 0.03 0.03 0.05 0.08 0.15 0.19 0.19 0.30 0.39 0.56 0.77 0.90
0.36 0.39 0.38 0.34 0.28 0.20 0.15 0.13 0.12 0.10 0.06 0.04 0.02 0.02 0.02 0.01 0.02 0.03 0.05 0.05 0.04 0.05 0.04 0.04 0.05 0.06 0.05 0.03 0.00 0.00 0.02 0.04 0.05 0.09 0.15 0.22 0.26 0.25 0.37 0.55 0.70 0.94 0.99
0.37 0.36 0.31 0.24 0.17 0.11 0.09 0.09 0.07 0.05 0.02 0.02 0.02 0.02 0.01 0.01 0.01 0.03 0.05 0.05 0.04 0.04 0.04 0.04 0.04 0.04 0.05 0.04 0.01 0.00 0.01 0.03 0.08 0.19 0.28 0.31 0.31 0.34 0.51 0.66 0.85 1.09 1.17
0.32 0.26 0.19 0.14 0.10 0.07 0.06 0.06 0.04 0.02 0.02 0.02 0.02 0.03 0.02 0.02 0.02 0.03 0.04 0.04 0.04 0.04 0.04 0.04 0.04 0.04 0.05 0.05 0.01 0.01 0.01 0.03 0.09 0.22 0.38 0.39 0.36 0.52 0.77 0.96 1.09 1.23 1.19
0.19 0.14 0.09 0.07 0.06 0.04 0.04 0.04 0.02 0.02 0.03 0.04 0.04 0.04 0.04 0.04 0.04 0.05 0.03 0.04 0.04 0.03 0.04 0.05 0.05 0.05 0.06 0.05 0.04 0.04 0.04 0.07 0.10 0.18 0.34 0.47 0.52 0.69 0.96 1.14 1.23 1.25 1.15
0.09 0.06 0.05 0.05 0.03 0.02 0.02 0.02 0.02 0.02 0.04 0.04 0.04 0.04 0.04 0.04 0.05 0.06 0.03 0.02 0.02 0.01 0.03 0.05 0.07 0.08 0.08 0.05 0.05 0.08 0.09 0.11 0.15 0.19 0.26 0.37 0.50 0.70 0.91 1.03 1.07 1.04 0.98
0.05 0.04 0.03 0.02 0.01 0.01 0.01 0.01 0.01 0.01 0.02 0.03 0.03 0.03 0.03 0.03 0.03 0.05 0.05 0.02 0.01 0.01 0.01 0.03 0.05 0.06 0.06 0.04 0.04 0.06 0.10 0.15 0.20 0.24 0.33 0.47 0.60 0.76 0.89 0.96 0.94 0.87 0.81